SnugLite (43784 NORAD) Tracking and Keplerian Element Data

This shows tracking and keplerian element data for the satellite.

Feedback or suggestion? Click here.




ElementValue
Catalog43784
NameSnugLite
Epoch Orbit3383
Epoch Day199.16841714
Epoch Year2019
RAAN270.6739
Inclination97.7405
Eccentricity0.0013983
Argument of Perigee226.92
Mean Anonmoly133.0851
Mean Motion14.95145102
Decay Rate-1E-07
L11 43784U 18099AC 19199.16841714 -.00000010 00000-0 43600-5 0 9994
L22 43784 97.7405 270.6739 0013983 226.9200 133.0851 14.95145102 33839

Live tracking and technical data element details for SnugLite (NORAD 43784). SnugLite can be tracked NOW for your location showing map with azimuth and elevation plus other details from your city location.

Track the satellite on the map from your city or location and see movement details for azimuth, elevation, latitude, longitude, range, height, and movement on the map or in text.







IsCatalogInMostPopularTable: catalog: 43784, numindb: 88
Update: records affected: 1



GetName: 43784 SnugLite

Hit Count: updated at: Tue, 23 Jul 2019 02:37:33 GMT